Terminal Aerodrome Forecast
Issued by NWS St Louis, MO

Home | Current Version | Previous Version | Text Only | Print | Product List | Glossary On
Versions: 1 2 3 4 5 6 7 8 9 10 11 12 13 14 15 16 17 18 19 20 21 22 23 24 25 26 27
000
FTUS43 KLSX 261728
TAFSTL
TAF
KSTL 261728Z 2618/2724 VRB04KT P6SM BKN035
     FM270000 04005KT P6SM SCT040
     FM271000 00000KT 5SM BR SKC
     FM271400 05004KT P6SM SCT030=

USA.gov is the U.S. government's official web portal to all federal, state and local government web resources and services.